| time (UTC) | temp F | wind direction | speed MPH | gust MPH | rain 1hr in | rain 24hr in | rain mn in | humidity % | barometer mb |
| 20260831003053 | 98 | 296 | 7.0 | 12.0 | 0.00 | 0.00 | 0.00 | 31 | 1003.9 |
| 20260831001551 | 99 | 285 | 4.0 | 9.0 | 0.00 | 0.00 | 0.00 | 29 | 1004.0 |
| 20260831000050 | 99 | 277 | 8.0 | 12.0 | 0.00 | 0.00 | 0.00 | 30 | 1003.9 |
| 20260830234548 | 99 | 284 | 5.0 | 10.0 | 0.00 | 0.00 | 0.00 | 30 | 1003.9 |
| 20260830233047 | 98 | 293 | 6.0 | 12.0 | 0.00 | 0.00 | 0.00 | 31 | 1004.0 |
| 20260830231545 | 97 | 286 | 6.0 | 12.0 | 0.00 | 0.00 | 0.00 | 31 | 1004.1 |
| 20260830230044 | 99 | 288 | 1.0 | 14.0 | 0.00 | 0.00 | 0.00 | 31 | 1004.3 |
| 20260830224542 | 100 | 283 | 4.0 | 8.0 | 0.00 | 0.00 | 0.00 | 30 | 1004.5 |
| 20260830223039 | 101 | 281 | 2.0 | 9.0 | 0.00 | 0.00 | 0.00 | 30 | 1004.8 |
| 20260830221540 | 100 | 297 | 0.0 | 7.0 | 0.00 | 0.00 | 0.00 | 30 | 1005.1 |
| 20260830220044 | 99 | 299 | 2.0 | 12.0 | 0.00 | 0.00 | 0.00 | 31 | 1005.4 |
| 20260830214538 | 98 | 295 | 9.0 | 20.0 | 0.00 | 0.00 | 0.00 | 32 | 1005.5 |
| 20260830213043 | 100 | 286 | 3.0 | 14.0 | 0.00 | 0.00 | 0.00 | 31 | 1005.8 |
| 20260830211548 | 97 | 302 | 8.0 | 16.0 | 0.00 | 0.00 | 0.00 | 32 | 1006.1 |
| 20260830210046 | 98 | 280 | 4.0 | 8.0 | 0.00 | 0.00 | 0.00 | 31 | 1006.3 |
| 20260830204523 | 101 | 254 | 1.0 | 4.0 | 0.00 | 0.00 | 0.00 | 30 | 1006.6 |
| 20260830203026 | 101 | 276 | 0.0 | 8.0 | 0.00 | 0.00 | 0.00 | 30 | 1006.9 |
| 20260830201516 | 99 | 219 | 0.0 | 4.0 | 0.00 | 0.00 | 0.00 | 31 | 1007.2 |
| 20260830200014 | 98 | 283 | 4.0 | 7.0 | 0.00 | 0.00 | 0.00 | 31 | 1007.3 |
| 20260830194514 | 97 | 280 | 0.0 | 9.0 | 0.00 | 0.00 | 0.00 | 34 | 1007.6 |
| 20260830193017 | 97 | 262 | 4.0 | 9.0 | 0.00 | 0.00 | 0.00 | 33 | 1007.9 |
| 20260830191516 | 100 | 255 | 1.0 | 6.0 | 0.00 | 0.00 | 0.00 | 33 | 1008.2 |
| 20260830173035 | 94 | 142 | 2.0 | 5.0 | 0.00 | 0.00 | 0.00 | 39 | 1009.3 |
| 20260830171535 | 94 | 101 | 0.0 | 2.0 | 0.00 | 0.00 | 0.00 | 39 | 1009.4 |
| 20260830170030 | 91 | 216 | 2.0 | 5.0 | 0.00 | 0.00 | 0.00 | 42 | 1009.4 |
| 20260830164534 | 90 | 174 | 1.0 | 4.0 | 0.00 | 0.00 | 0.00 | 45 | 1009.5 |
| 20260830163025 | 89 | 250 | 0.0 | 2.0 | 0.00 | 0.00 | 0.00 | 45 | 1009.6 |
| 20260830161529 | 90 | 179 | 1.0 | 6.0 | 0.00 | 0.00 | 0.00 | 44 | 1009.7 |
| 20260830160023 | 91 | 204 | 0.0 | 5.0 | 0.00 | 0.00 | 0.00 | 44 | 1009.7 |
| 20260830154527 | 89 | 120 | 1.0 | 4.0 | 0.00 | 0.00 | 0.00 | 45 | 1009.8 |
| 20260830153014 | 88 | 201 | 0.0 | 2.0 | 0.00 | 0.00 | 0.00 | 48 | 1009.7 |
| 20260830151511 | 86 | 124 | 1.0 | 3.0 | 0.00 | 0.00 | 0.00 | 48 | 1009.6 |
| 20260830150010 | 86 | 162 | 0.0 | 1.0 | 0.00 | 0.00 | 0.00 | 50 | 1009.6 |
| 20260830144507 | 84 | 162 | 0.0 | 0.0 | 0.00 | 0.00 | 0.00 | 54 | 1009.6 |
| 20260830143004 | 82 | 162 | 0.0 | 0.0 | 0.00 | 0.00 | 0.00 | 53 | 1009.7 |
| 20260830141504 | 82 | 175 | 0.0 | 0.0 | 0.00 | 0.00 | 0.00 | 55 | 1009.8 |
| 20260830140001 | 81 | 175 | 0.0 | 0.0 | 0.00 | 0.00 | 0.00 | 55 | 1009.9 |
| 20260830134601 | 81 | 175 | 0.0 | 4.0 | 0.00 | 0.00 | 0.00 | 55 | 1009.9 |
| 20260830133057 | 81 | 110 | 0.0 | 0.0 | 0.00 | 0.00 | 0.00 | 54 | 1010.0 |
| 20260830131556 | 82 | 98 | 0.0 | 3.0 | 0.00 | 0.00 | 0.00 | 54 | 1009.9 |
| 20260830130110 | 82 | 101 | 0.0 | 4.0 | 0.00 | 0.00 | 0.00 | 54 | 1009.8 |
| 20260830124552 | 82 | 87 | 1.0 | 4.0 | 0.00 | 0.00 | 0.00 | 54 | 1009.7 |
| 20260830123049 | 82 | 130 | 1.0 | 8.0 | 0.00 | 0.00 | 0.00 | 53 | 1009.3 |
| 20260830121547 | 83 | 111 | 4.0 | 9.0 | 0.00 | 0.00 | 0.00 | 52 | 1009.1 |
| 20260830120053 | 83 | 112 | 1.0 | 7.0 | 0.00 | 0.00 | 0.00 | 51 | 1009.4 |
| 20260830114607 | 83 | 125 | 1.0 | 8.0 | 0.00 | 0.00 | 0.00 | 49 | 1009.0 |
| 20260830113043 | 83 | 113 | 4.0 | 10.0 | 0.00 | 0.00 | 0.00 | 48 | 1008.6 |
| 20260830111537 | 83 | 94 | 2.0 | 5.0 | 0.00 | 0.00 | 0.00 | 47 | 1008.5 |
| 20260830110034 | 84 | 114 | 0.0 | 7.0 | 0.00 | 0.00 | 0.00 | 47 | 1008.7 |
| 20260830104536 | 84 | 172 | 2.0 | 7.0 | 0.00 | 0.00 | 0.00 | 46 | 1008.6 |
| 20260830103029 | 84 | 69 | 2.0 | 7.0 | 0.00 | 0.00 | 0.00 | 46 | 1008.4 |
| 20260830101525 | 84 | 107 | 3.0 | 8.0 | 0.00 | 0.00 | 0.00 | 47 | 1008.1 |
| 20260830100023 | 84 | 86 | 1.0 | 9.0 | 0.00 | 0.00 | 0.00 | 47 | 1007.8 |
| 20260830094521 | 84 | 107 | 2.0 | 7.0 | 0.00 | 0.00 | 0.00 | 48 | 1007.7 |
| 20260830093049 | 83 | 113 | 1.0 | 7.0 | 0.00 | 0.00 | 0.00 | 48 | 1007.5 |
| 20260830091549 | 83 | 96 | 1.0 | 4.0 | 0.00 | 0.00 | 0.00 | 50 | 1007.4 |
| 20260830090021 | 82 | 56 | 0.0 | 2.0 | 0.00 | 0.00 | 0.00 | 52 | 1007.3 |
| 20260830084518 | 82 | 6 | 0.0 | 0.0 | 0.00 | 0.00 | 0.00 | 52 | 1007.3 |
| 20260830083016 | 82 | 290 | 0.0 | 2.0 | 0.00 | 0.00 | 0.00 | 51 | 1007.5 |
| 20260830081511 | 83 | 289 | 0.0 | 0.0 | 0.00 | 0.00 | 0.00 | 51 | 1007.4 |
| 20260830080010 | 83 | 271 | 0.0 | 2.0 | 0.00 | 0.00 | 0.00 | 51 | 1007.3 |
| 20260830074508 | 83 | 276 | 4.0 | 6.0 | 0.00 | 0.00 | 0.00 | 51 | 1007.2 |
| 20260830073005 | 84 | 303 | 0.0 | 7.0 | 0.00 | 0.00 | 0.00 | 48 | 1007.1 |
| 20260830071502 | 85 | 276 | 2.0 | 7.0 | 0.00 | 0.00 | 0.00 | 45 | 1006.7 |
| 20260830070002 | 85 | 127 | 0.0 | 6.0 | 0.00 | 0.00 | 0.00 | 45 | 1006.6 |
| 20260830064501 | 85 | 111 | 1.0 | 13.0 | 0.00 | 0.00 | 0.00 | 46 | 1006.5 |
| 20260830063130 | 85 | 120 | 3.0 | 8.0 | 0.00 | 0.00 | 0.00 | 46 | 1006.5 |
| 20260830061530 | 85 | 143 | 2.0 | 7.0 | 0.00 | 0.00 | 0.00 | 45 | 1006.4 |
| 20260830060030 | 84 | 85 | 1.0 | 4.0 | 0.00 | 0.00 | 0.00 | 46 | 1006.6 |
| 20260830054559 | 85 | 121 | 0.0 | 4.0 | 0.00 | 0.00 | 0.00 | 47 | 1006.9 |
| 20260830053106 | 85 | 305 | 0.0 | 0.0 | 0.00 | 0.00 | 0.00 | 44 | 1007.3 |
| 20260830051601 | 85 | 262 | 1.0 | 6.0 | 0.00 | 0.00 | 0.00 | 45 | 1007.8 |
| 20260830050105 | 85 | 303 | 3.0 | 7.0 | 0.00 | 0.00 | 0.00 | 46 | 1008.1 |
| 20260830044608 | 85 | 291 | 4.0 | 13.0 | 0.00 | 0.00 | 0.00 | 46 | 1008.2 |
| 20260830043109 | 85 | 295 | 4.0 | 12.0 | 0.00 | 0.07 | 0.00 | 45 | 1008.4 |
| 20260830041606 | 86 | 296 | 6.0 | 15.0 | 0.00 | 0.07 | 0.00 | 44 | 1008.6 |
| 20260830040109 | 87 | 300 | 5.0 | 13.0 | 0.00 | 0.07 | 0.00 | 43 | 1008.4 |
| 20260830034550 | 88 | 284 | 6.0 | 13.0 | 0.00 | 0.07 | 0.00 | 44 | 1008.2 |
| 20260830033101 | 88 | 280 | 0.0 | 0.0 | 0.00 | 0.07 | 0.00 | 43 | 1007.9 |
| 20260830031548 | 88 | 284 | 0.0 | 0.0 | 0.00 | 0.07 | 0.00 | 43 | 1007.3 |
| 20260830030047 | 88 | 310 | 2.0 | 6.0 | 0.00 | 0.07 | 0.00 | 45 | 1006.9 |
| 20260830024547 | 87 | 276 | 0.0 | 0.0 | 0.00 | 0.07 | 0.00 | 47 | 1006.8 |
| 20260830023050 | 88 | 276 | 0.0 | 3.0 | 0.00 | 0.07 | 0.00 | 46 | 1006.4 |
| 20260830021543 | 88 | 96 | 0.0 | 0.0 | 0.00 | 0.07 | 0.00 | 45 | 1005.9 |
| 20260830014546 | 89 | 198 | 0.0 | 5.0 | 0.00 | 0.07 | 0.00 | 43 | 1005.3 |
| 20260830013043 | 89 | 123 | 0.0 | 6.0 | 0.00 | 0.07 | 0.00 | 42 | 1004.9 |
| 20260830011551 | 90 | 277 | 0.0 | 8.0 | 0.00 | 0.07 | 0.00 | 45 | 1004.9 |
| 20260830010048 | 92 | 279 | 8.0 | 16.0 | 0.00 | 0.07 | 0.00 | 39 | 1004.4 |
| 20260830004542 | 93 | 201 | 0.0 | 4.0 | 0.00 | 0.07 | 0.00 | 40 | 1004.5 |